SL-14 R/B, 23005

Orbit data source: Space-Track

SL-14 R/B, 23005 is space debris in LEO originally from a launch on Sat, 12 Feb 1994 UTC launched from the Plesetsk Missile And Space Complex (PKMTR). Debris objects in space refer to the collection of defunct objects orbiting the Earth. Examples of debris include non-operational satellites, rocket bodies, and fragments generated from explosions, collisions, or faulty payload assembly.

Loading next visibility...
Identifier
23005, 1994-011G
Orbit
LEO
Country
Flag of CISCIS
Related business
Manufacturer
Yuzhnoe
Mission
Spacecraft
Bus & Motor
S5M, Unknown motor
Mass
1,600 kg wet, 1,600 kg dry
Launch date (UTC)
1994-02-12 (32 years ago)
Launch vehicle
Unknown
Launch site
Plesetsk Missile And Space Complex (PKMTR)
Object type
Payload
Rocket body
Debris
Shape & HBR
Cyl, 1.4 m
Radar Cross Section
7.351 m², Large (>1 m²)

Expand to show TLE details & history
Last TLE update: 12 hours ago

TLE from 12 hours ago
0 SL-14 R/B
1 23005U 94011G   26035.38157838  .00000025  00000-0  91032-4 0  9990
2 23005  82.5807 146.5440 0041847  51.9029   7.5192 12.55221918465090
Epoch: 2026-02-04T09:09Z
TLE epoch observation values (Epoch: 2026-02-04T09:09:28.372Z)
Latitude
58.77039°
Longitude
-113.03351°
Altitude
1,420.168 km
Speed
7.171 km/s
True Right ascension
10h 35m 32s
True Declination
58° 37' 50"
Sunlit
Object was in full shadow at epoch
Visualization orbit readout
Latitude
Unknown
Longitude
Unknown
Altitude
Unknown
Speed
Unknown
Apparent Right ascension
Unknown
Apparent Declination
Unknown
Sunlit
N/A
Visualization observer readout
Local Sidereal Time
23:26:49
Azimuth
Unknown
Elevation
Unknown
Doppler factor
Unknown
Orbital elements
Apogee altitude
1,472.776 km
Perigee altitude
1,407.343 km
Semi-major axis
7,818.196 km
Eccentricity
0.00418
Inclination
82.5807°
RAAN
146.544°
Arg. of periapsis
51.9029°
True anomaly
7.58228°
Mean anomaly
7.5192°
Eccentric anomaly
7.55071°
Mean motion
3.13966 °/min
Orbital period
114.66 mins
BSTAR
0.000091032
Loading maneuver chart data...
Computing Atmospheric mass density...
Loading historical data...
Loading historical data...
Loading historical data...
Loading historical data...
Loading historical data...
Loading historical data...
Loading historical data...

Documentation

Showing up to 5 results
|